Погода Анучино

Погода Анучино : погода сейчас, прогноз погоды и архив. Всё, что Вы хотите узнать о погоде Анучино!

Хотите узнать прогноз погоды Анучино? Тогда Вам сюда: Погода Анучино

Поиск расширенной информации на нашем сайте:

Другие новости

Новости СМИ2

Главная страница сайта

Новости сайта

03.07.2017

Напоминаем, что на нашем специализированном сайте Метеоцентр.Азия вы можете получить высокодетализированные автоматические прогнозы погоды по пунктам России, СНГ и мира в авиационном формате (включающие направление и скорость ветра, видимость, явления погоды, количество и форму облачности, нижнюю и верхнюю границу облачности).


Погода Анучино - сегодня

Время (UTC), дата Ветер
(°,м/с) 
Видим.   Явления Облачность Т
(°С)
Тd
(°С)
f(%) Тe
(°С)
Pmin
(гПа)
dP
(гПа)
Po
(мм)
O2
(г/м3)
Тmin Tmax R s Состояние
почвы
12 20.10.17 250 (З) 20000 м    ясно 
+5.9 +4.3 89 +6  1019.7  0.1  748  294           
15 20.10.17 250 (З) 20000 м    ясно 
+4.8 +3.5 91 +6  1019  -0.9  747  295           
18 20.10.17 220 (ЮЗ) 10 км  слаб. ливневой дождь  10/10 600 м кучево-дожд. 
[Cb cap]
+9.3 +6 80 +9  1018.1  -0.5  747  290           
21 20.10.17 230 (ЮЗ) 20000 м  {ливн. осадки}  8/6 600 м средняя 
[Sc diur, vesp|Ac trans]
+10.2 +6.8 79 +10  1018.4  0.4  747  289  +4.3    0.0    влажная 
00 21.10.17 230 (ЮЗ) 20000 м  {ливн. осадки}  6/6 600 м 
[Cu med, cong]
+14 +8.8 71 +15  1018.5  0.4  747  285           
03 21.10.17 220 (ЮЗ) 4{11}  20000 м    8/8 600 м 
[Cu med, cong]
+16.7 +8.7 59 +17  1017.4  -0.9  746  282           
06 21.10.17 010 (С) 2{10}  20000 м  в посл. час гроза{ливн. осадки}  10/10 600 м 
[Sc diur, vesp]
+9 +5.5 79 +9  1020.4  2.4  748  291           
09 21.10.17 040 (СВ) 20000 м    6/6 600 м 
[Sc]
+6.9 +2.7 75 +8  1022.9  2.2  750  294    +17.6     
12 21.10.17 тихо ()   20000 м    8/8 600 м 
[Sc]
+0.9 -0.2 92 +1  1025.4  751  302           
15 21.10.17 тихо ()   20000 м    ясно 
-1.8 -3.8 86 -2  1026.4  0.7  752  305           
18 21.10.17 220 (ЮЗ) 20000 м    ясно 
-4 -5.6 89 -4  1027.2  0.6  752  308           
21 21.10.17 тихо ()   20000 м    ясно 
-5.9 -6.9 93 -6  1028.7  1.2  753  311  -6        замёрзшая 
00 22.10.17 070 (В) 20000 м    ясно 
-0.5 -5.1 71 1029  0.8  754  305  -6.2         
03 22.10.17 010 (С) 20000 м    ясно 
+4.7 -12.9 27 +3  1025.9  -2.5  752  299           
06 22.10.17 020 (С) 3{10}  20000 м    ясно 
+5.7 -11.8 27 +5  1023.9  -1.9  751  297           
09 22.10.17 тихо ()   20000 м    3/0 средняя 
[Ac lent]
+1.3 -12.1 36 +1  1024.8  0.6  751  302    +5.7       
12 22.10.17 тихо ()   20000 м    ясно 
-2.8 -8.7 64 -3  1024.8  -0.3  751  306           
15 22.10.17 тихо ()   20000 м    ясно 
-3.8 -8.5 70 -4  1023.4  -1.4  750  307           
18 22.10.17 тихо ()   20000 м    ясно 
-4.8 -8.5 75 -5  1022.2  -1.3  749  308           
21 22.10.17 тихо ()   20000 м    1/0 средняя 
[Ac lent]
-7.4 -9.9 82 -7  1021.5  -0.9  748  311  -7.4        замёрзшая 
00 23.10.17 220 (ЮЗ) 20000 м    ясно 
-2.4 -8.2 64 -2  1021.2  0.1  748  305  -8.2         
03 23.10.17 340 (С) 20000 м    ясно 
+3.8 -11.1 33 +3  1019.3  -1.4  747  298           
06 23.10.17 320 (СЗ) 20000 м    ясно 
+5.5 -9.4 33 +4  1018.5  -0.6  747  296           
09 23.10.17 тихо ()   20000 м    ясно 
+1.2 -9.1 46 +1  1021  748  301    +5.9       
12 23.10.17 210 (ЮЗ) 20000 м    ясно 
-3.7 -8.2 71 -3  1023  1.6  749  307           
Время (UTC), дата Ветер
(°,м/с) 
Видим.   Явления Облачность Т
(°С)
Тd
(°С)
f(%) Тe
(°С)
Pmin
(гПа)
dP
(гПа)
Po
(мм)
O2
(г/м3)
Тmin Tmax R s Состояние
почвы

Для получения пояснительной информации подведите курсор к названию столбца.

ПОГОДА Анучино - архив

Всё, что Вы хотите узнать о погоде Анучино - удобно и подробно!

Выберите нужную дату (начиная с 1 января 2015* года) и нажмите кнопку "Найти".
Будут отображены архивные сводки погоды по пункту Анучино, начиная с указанной даты.


Отображать данные в формате CSV (для использования в таблицах Excel)


Внимание! Наш архив погоды предназначен исключительно для личного некоммерческого использования в познавательных целях. Если Вам необходимы официальные справки о состоянии погоды (для производственных, юридических, коммерческих и т.п. целей), обращайтесь в органы Росгидромета.

*Примечание: данная дата относится к архиву по метеостанциям СССР (Россия, СНГ, Балтия).
Архив по метеостанциям Зарубежной Европы и Азии (кроме Китая) хранится 10 дней, по другим регионам земного шара (Китай, Африка, Америка, Австралия, Океания) - 1 день.

Анучино - район местоположения метеостанции


Название, широта, долгота, высота метеостанции:
Анучино 44°ш. 133.1°д. 188 м над ур. моря [Российская Федерация]

Дополнительная информация

В oтличие oт бoльшинства пoгoдных сайтoв мы публикуем пoдрoбную метеoинфoрмацию в детальнoм прoфессиoнальнoм фoрмате.

Характеристики температуры и влажнoсти вoздуха измеряются на высoте 2 м в тени вдали oт зданий и деревьев.
Скoрoсть ветра измеряется на высoте 10 м (на урoвне рoста челoвека скoрoсть ветра ниже в 1.5-2 раза). Если метеoстанция нахoдится в гoрoде или в лесу, тo скoрoсть ветра занижена на 2-4 м/с пo сравнению с oткрытым местoм. Скoрoсть ветра над акватoриями крупных рек и oзёр, а также на вершинах хoлмoв на 2-5 м/с выше, чем в oбычных услoвиях.
Атмoсфернoе давление в разных тoчках местнoсти мoжет значительнo oтличаться oт давления на метеoстанции, в зависимoсти oт услoвий рельефа (при пoдъёме на 10 м давление пoнижается примернo на 1 мм рт.ст.).